Skip Page Navigation
NASA JPL Caltech
NASA Logo - Jet Propulsion Laboratory + View the NASA Portal
+ Near-Earth Object (NEO) Program
Search JPL
JPL Home Earth Solar System Stars & Galaxies Technology
JPL Solar System Dynamics
BODIES ORBITS EPHEMERIDES TOOLS PHYSICAL DATA DISCOVERY FAQ SITE MAP
JPL Small-Body Database Browser
Search: [ help ]  
7886 Redman (1993 PE)
Classification: Main-belt Asteroid          SPK-ID: 2007886
Ephemeris | Orbit Diagram | Orbital Elements | Physical Parameters | Discovery Circumstances ]

[ hide orbit diagram ]
Orbit Diagram
Note: Make sure you have Java enabled on your browser to see the applet. This applet is provided as a 3D orbit visualization tool. The applet was implemented using 2-body methods, and hence should not be used for determining accurate long-term trajectories (over several years or decades) or planetary encounter circumstances. For accurate long-term ephemerides, please instead use our Horizons system.
Orbit Viewer

Additional Notes: the orbits shown in the applet are color coded. The planets are white lines, and the asteroid/comet is a blue line. The bright white line indicates the portion of the orbit that is above the ecliptic plane, and the darker portion is below the ecliptic plane. Likewise for the asteroid/comet orbit, the light blue indicates the portion above the ecliptic plane, and the dark blue the portion below the ecliptic plane.

Orbit Viewer applet originally written and kindly provided by Osamu Ajiki (AstroArts), and further modified by Ron Baalke (JPL).


Orbital Elements at Epoch 2456400.5 (2013-Apr-18.0) TDB
Reference: JPL 1 (heliocentric ecliptic J2000)
 Element Value Uncertainty (1-sigma)   Units 
e .09995832130213103 7.7397e-08  
a 2.382078713088754 1.7244e-08 AU
q 2.143970123718862 1.7985e-07 AU
i 3.925978890836159 7.2031e-06 deg
node 266.9318787042779 9.8829e-05 deg
peri 77.80365754601895 0.00010499 deg
M 108.089028823015 3.7323e-05 deg
tp 2455997.308188769367
(2012-Mar-10.80818877)
0.0001383 JED
period 1342.865724889572
3.68
1.4582e-05
3.992e-08
d
yr
n .2680833930954667 2.911e-09 deg/d
Q 2.620187302458647 1.8968e-08 AU
  Orbit Determination Parameters
   # obs. used (total)      941  
   data-arc span      22705 days (62.16 yr)  
   first obs. used      1951-02-04  
   last obs. used      2013-04-04  
   planetary ephem.      DE405  
   SB-pert. ephem.      SB405-CPV-2  
   condition code      0  
   fit RMS      .58096  
   data source      ORB  
   producer      Otto Matic  
   solution date      2013-Apr-29 13:28:36  

Additional Information
 Earth MOID = 1.13999 AU 
 T_jup = 3.528 
[ show covariance matrix ]

Ephemeris | Orbit Diagram | Orbital Elements | Physical Parameters | Discovery Circumstances ]

Physical Parameter Table
Parameter Symbol Value Units Sigma Reference Notes
absolute magnitude H 14.7 mag n/a PDS3 (MPC 30640)  

7886 Redman           Discovered 1993 Aug. 12 by D. D. Balam at Climenhaga Observatory, University of Victoria.
Named in memory of Roderick Oliver Redman (1905-1975), professor of astronomy and longtime director of the University of Cambridge Observatories, and in honor of Russell Ormond Redman (b. 1951), a radio astronomer on the staff of the Dominion Astrophysical Observatory. The senior Redman established a lifelong association with the DAO when he obtained the observational material for his doctoral thesis there; he became renowned for his superlative observational techniques and designs for astronomical instrumentation. The junior Redman, whose association with the DAO began as a summer student assistant in 1970, has pioneered the study of minor planets at submillimeter wavelengths and is an authority in using the thermal emission spectra to study their surfaces. Citation prepared by P. A. Feldman at the request of the discoverer.
NOTE: some special characters may not display properly (any characters within {} are an attempt to place the proper accent above a character)
Reference: 19980610/MPCPages.arcLast Updated: 2009-11-17
Ephemeris | Orbit Diagram | Orbital Elements | Physical Parameters | Discovery Circumstances ]
ABOUT SSD CREDITS/AWARDS PRIVACY/COPYRIGHT GLOSSARY LINKS
FirstGov 2013-May-21 13:21 UT
(server date/time)  
NASA Home Page
Site Manager:   Donald K. Yeomans
Webmaster  Alan B. Chamberlin